Wind_Speed
6 3 3 4 4 5 3 4 2 5 8 3 5 3 5 4 5 4 2 3 6 12 22 24 24 23 21 20 19 19 20 21 22 24 25 24 23 23 22 22 22 22 22 21 21 20 16 12 9
5 2 4 2 4 2 4 3 5 3 7 8 2 4 0 2 1 1 2 8 7 14 19 22 22 22 22 21 19 18 18 19 21 22 23 24 24 23 22 22 22 22 22 22 20 18 16 13 10
4 4 4 4 3 4 3 1 6 7 8 4 2 3 4 3 2 5 4 12 11 12 17 22 23 21 20 20 19 18 17 18 19 20 21 23 24 24 23 22 22 22 21 20 19 18 16 15 12
2 6 4 4 4 4 2 6 3 11 9 9 7 2 3 4 0 2 7 10 10 12 14 18 21 21 20 20 19 18 16 16 17 18 20 22 23 23 23 23 22 22 20 20 19 18 17 15 12
6 3 4 2 3 3 5 4 4 6 4 6 9 8 7 6 5 4 7 7 7 8 11 14 17 19 21 21 20 20 18 17 18 19 20 22 22 23 22 22 22 22 20 19 19 18 17 15 14
4 3 4 3 3 3 6 4 4 4 4 10 5 7 4 15 5 4 3 3 4 8 11 12 14 16 18 20 20 21 21 20 19 20 21 22 23 23 23 23 23 22 21 19 19 18 17 15 14
6 4 3 2 4 2 3 5 4 5 7 6 6 4 6 6 5 2 2 4 5 8 11 13 16 17 16 17 19 19 19 19 19 20 21 22 23 23 23 24 23 22 21 20 19 18 17 15 14
5 4 3 4 3 4 1 2 5 5 6 6 4 4 6 6 6 5 6 7 7 10 14 16 19 19 18 18 19 19 19 18 18 19 20 21 22 23 23 23 23 22 22 21 19 19 17 16 15
3 4 3 5 4 4 2 6 3 4 4 4 3 2 7 18 12 9 9 10 11 13 15 17 19 18 17 17 18 19 19 19 19 19 20 20 22 23 23 23 23 23 23 22 21 20 19 17 16
4 4 8 5 4 2 5 3 4 5 8 4 2 4 12 21 13 14 15 16 15 20 20 19 19 20 18 16 16 17 18 19 20 20 20 21 22 24 24 25 24 23 23 23 22 21 20 19 18
3 6 5 4 4 3 3 6 2 2 5 2 9 13 10 10 13 13 19 22 25 25 25 22 20 20 18 17 15 14 15 18 19 19 19 20 19 19 22 24 25 24 24 25 24 23 23 22 21
3 4 1 3 4 5 6 4 4 7 8 4 7 9 8 11 10 13 19 26 30 27 25 23 21 20 18 16 15 12 12 15 18 19 17 17 18 18 19 20 23 26 27 27 27 28 27 25 25
3 3 6 8 7 6 5 6 7 8 9 7 7 7 8 9 11 23 24 29 27 23 22 22 20 20 17 15 12 9 8 10 14 17 17 16 17 19 19 20 20 22 24 29 29 29 30 30 29
1 4 7 6 10 6 5 5 1 1 3 2 1 5 7 8 10 17 24 26 23 19 20 20 22 24 21 17 14 11 9 8 11 14 15 13 14 16 16 18 20 23 23 24 30 32 31 28 27
3 5 7 5 3 5 3 5 2 2 7 10 9 7 9 8 14 12 22 22 5 3 8 15 18 20 20 18 15 13 11 9 6 6 4 8 13 14 10 16 24 23 23 25 28 31 31 29 25
4 4 4 4 5 2 5 5 6 5 12 16 14 13 13 12 10 17 13 15 12 14 11 9 11 12 15 15 14 13 11 9 7 3 3 5 6 8 12 10 8 18 28 29 30 29 27 30 28
5 2 2 8 5 4 5 2 6 16 16 11 14 9 8 8 12 20 23 22 20 16 15 13 10 9 8 11 12 11 9 7 5 3 2 1 3 5 8 12 16 18 12 23 31 31 27 25 24
4 3 3 5 6 8 13 13 7 9 9 13 14 9 8 7 9 18 25 24 23 20 18 16 15 13 8 5 8 11 9 7 5 4 4 5 6 8 8 9 10 10 12 17 17 25 32 27 21
4 3 3 4 10 7 11 13 9 9 8 11 12 8 4 11 13 24 27 28 26 26 24 24 21 21 19 12 5 2 5 8 8 8 7 7 9 10 12 12 12 11 11 13 13 16 23 27 30
6 2 6 6 7 6 10 10 9 6 6 10 13 13 9 11 14 20 26 28 29 29 30 28 25 24 21 20 14 6 4 5 6 11 10 12 11 11 12 14 14 12 13 14 14 11 13 20 25
5 5 4 7 5 5 8 5 5 5 15 15 17 16 17 14 14 16 22 25 26 28 27 27 28 28 28 21 20 12 4 2 6 16 15 17 14 14 14 14 15 14 13 13 15 15 17 12 14
3 6 6 5 1 3 3 6 4 3 12 14 15 17 15 16 16 16 21 24 27 24 24 26 24 31 26 26 21 18 12 9 13 15 17 17 16 16 14 13 13 14 14 14 14 15 17 17 15
7 4 4 4 3 2 2 2 3 6 10 12 14 15 16 16 16 16 20 21 22 24 23 23 25 30 25 27 23 20 14 16 15 17 18 17 19 18 17 16 15 16 14 15 15 16 16 18 20
5 4 3 3 3 4 8 8 4 4 3 9 10 11 10 11 10 12 14 16 17 20 23 24 25 25 31 30 26 24 21 19 18 18 19 21 19 18 19 19 19 19 16 16 17 18 20 20 21
3 5 3 3 1 5 1 2 2 3 4 8 9 7 6 6 6 5 9 14 14 19 20 22 26 25 25 28 25 25 21 18 15 18 19 21 21 21 22 23 23 21 21 20 20 20 22 22 24
5 8 5 5 3 3 2 5 2 6 7 6 6 6 5 5 5 5 6 6 10 14 20 23 24 26 25 25 23 21 21 19 18 20 20 18 19 21 23 24 23 21 22 23 21 21 23 23 26
4 6 2 1 1 1 4 1 3 8 7 6 6 4 3 4 6 7 9 10 11 13 14 18 18 17 18 17 18 20 20 20 23 23 21 21 21 20 21 20 21 21 21 23 20 21 22 24 25
6 7 3 1 3 5 4 4 5 14 12 11 9 6 3 5 6 6 8 12 14 13 14 17 15 15 16 18 19 19 21 24 24 24 24 23 22 23 23 23 22 21 22 20 23 22 24 23 24
3 3 2 3 3 4 2 5 5 17 16 14 10 7 6 4 4 5 6 9 11 13 16 17 17 16 18 18 18 18 22 22 21 20 21 22 22 23 23 24 24 23 22 24 24 24 23 26 25
3 5 6 4 4 4 3 5 4 10 12 12 9 8 7 6 3 2 6 10 12 15 16 15 17 18 20 18 19 22 22 21 22 25 24 24 22 22 22 23 25 24 25 24 24 23 23 23 23
Wind_Direction
16 29 35 41 54 65 284 277 259 312 334 241 270 204 193 145 161 206 189 194 210 174 175 182 184 185 185 183 177 168 162 156 154 155 156 157 156 155 158 162 164 167 168 171 173 171 174 172 162
28 21 62 83 84 51 277 291 310 261 255 284 273 132 103 255 107 251 189 180 163 172 184 186 187 188 188 188 185 179 173 168 164 161 161 161 162 163 164 166 167 169 174 178 175 176 182 186 183
26 43 78 89 109 183 219 268 292 300 319 305 301 56 173 180 182 181 217 166 160 173 184 191 192 192 194 193 191 189 184 181 176 172 169 169 168 170 169 169 170 173 176 180 180 181 187 193 194
22 22 37 92 211 254 217 290 321 345 354 29 321 350 0 355 214 196 172 169 171 176 182 189 194 194 199 200 198 196 194 192 190 186 180 178 177 176 174 173 174 176 179 183 185 189 190 192 196
41 51 58 12 251 265 259 275 358 359 339 331 341 319 315 359 328 154 153 166 176 190 191 193 196 199 202 205 205 204 201 201 199 197 193 189 187 183 182 180 179 179 181 184 189 192 192 192 195
46 90 68 254 248 239 278 285 341 6 322 321 23 337 311 346 22 95 135 179 205 205 197 203 201 205 209 214 215 212 210 208 206 205 203 199 196 193 189 187 185 185 186 188 190 193 194 195 195
112 88 204 239 260 295 200 336 44 335 339 331 312 38 296 347 344 319 272 239 206 193 198 203 205 208 217 223 222 223 222 219 214 213 211 208 205 202 198 195 193 192 192 193 194 196 196 198 200
106 91 127 259 277 277 281 38 328 3 307 311 355 14 325 300 310 289 278 246 237 214 208 208 207 208 211 219 225 226 228 231 229 225 221 217 213 212 209 205 202 201 200 200 200 200 202 205 205
121 71 189 229 182 247 330 8 313 285 304 325 287 33 305 341 315 296 286 273 255 238 225 220 215 214 218 219 222 228 231 232 233 232 229 225 221 218 217 215 213 210 209 208 207 208 209 210 210
97 133 218 221 198 246 324 355 321 345 311 299 317 298 320 322 324 321 293 268 261 253 237 225 218 215 214 216 222 226 233 238 234 232 231 227 225 223 222 222 220 221 219 218 217 216 217 217 214
167 189 203 256 254 25 271 300 163 239 275 258 308 309 323 305 308 298 296 284 274 262 251 234 223 218 214 213 214 225 234 235 240 235 232 233 230 229 230 228 226 226 224 224 223 222 221 224 222
291 247 264 281 331 330 306 288 295 192 256 289 295 293 307 318 314 311 301 298 299 278 254 245 233 219 215 216 218 226 236 239 234 236 231 230 233 232 234 232 235 233 229 227 225 225 226 227 230
250 317 330 301 291 260 257 247 253 251 269 306 317 322 312 313 313 321 320 318 314 281 258 236 231 217 211 209 213 215 230 241 237 236 236 235 239 240 241 241 240 237 237 235 232 232 232 232 231
7 290 285 281 286 267 257 286 72 347 37 56 354 281 268 282 298 308 314 310 304 265 238 228 212 211 196 192 197 193 186 202 231 234 235 247 251 251 249 252 249 248 244 239 239 237 235 232 234
294 328 318 278 308 296 353 343 189 64 0 353 327 284 295 296 304 310 318 321 303 136 150 152 165 170 175 172 166 165 165 170 188 204 201 223 235 245 263 273 266 256 251 251 249 244 239 237 232
4 46 350 307 336 306 69 281 303 333 347 329 325 310 312 317 9 12 39 79 85 109 93 105 115 125 137 138 133 135 132 136 143 161 218 255 264 255 254 268 282 272 263 259 254 247 234 230 229
8 268 320 322 337 325 54 252 301 327 315 303 294 288 292 317 26 34 42 52 71 72 74 67 68 64 87 127 135 130 119 114 113 119 105 359 304 280 279 270 272 282 297 258 250 243 235 226 221
185 191 262 266 300 329 303 290 286 279 298 289 294 293 300 69 43 42 47 52 51 53 55 54 46 35 31 86 124 125 110 96 78 65 25 355 333 318 298 290 283 286 288 272 267 246 229 226 229
107 158 240 265 279 300 276 290 297 282 298 302 305 297 19 75 63 47 40 40 41 41 41 35 34 29 24 16 344 19 81 76 76 46 34 14 350 334 325 310 302 302 296 286 284 288 252 245 236
224 259 270 283 271 299 292 306 272 278 355 28 11 349 85 73 56 47 39 33 31 29 28 27 26 23 21 13 360 352 7 41 70 34 32 18 7 357 346 331 321 313 305 293 281 278 257 237 234
186 197 207 247 314 292 324 316 84 70 35 30 37 39 56 58 57 49 40 29 25 24 20 20 26 25 10 13 9 19 352 2 0 5 11 8 9 1 355 349 336 325 319 304 290 280 270 274 236
253 205 210 246 303 272 24 288 95 17 29 28 50 52 49 46 48 44 38 29 23 9 16 22 14 38 3 19 2 23 15 13 2 350 353 357 358 357 355 356 343 333 325 316 302 286 272 267 262
228 174 181 154 200 349 227 273 185 57 18 26 59 54 48 45 41 34 32 28 20 10 18 14 15 26 16 18 3 7 357 18 1 357 353 360 354 356 356 350 338 328 323 315 304 298 288 272 259
127 94 73 77 126 241 213 188 303 37 14 71 64 58 57 57 48 44 42 37 13 7 17 24 16 9 17 10 359 1 358 9 360 357 357 355 352 344 346 341 337 332 322 312 300 288 282 277 265
130 122 306 320 210 232 126 178 304 111 116 129 126 124 115 111 93 63 26 21 28 12 9 23 16 16 8 10 356 352 352 5 354 359 359 350 345 341 341 338 331 330 323 318 309 296 286 274 264
180 176 207 246 210 233 325 231 237 146 133 130 113 102 91 66 49 40 37 52 23 22 11 17 12 9 4 7 352 345 357 0 1 2 357 349 341 339 339 332 332 329 329 321 316 305 295 281 264
189 203 193 258 167 266 212 223 185 170 159 169 151 144 107 55 42 27 17 25 12 26 17 16 20 11 1 355 352 353 359 4 7 6 2 352 346 343 337 335 335 338 334 325 324 310 297 283 278
167 162 102 198 242 232 244 236 221 190 190 190 182 171 83 55 36 26 7 17 11 11 8 15 24 14 355 1 3 1 3 12 9 9 5 357 356 354 350 350 350 343 344 341 334 325 315 302 304
138 199 138 155 184 225 248 250 231 189 190 190 189 148 135 99 46 6 7 15 15 8 11 13 12 11 3 2 3 4 10 12 9 5 0 358 1 0 357 359 357 356 353 353 343 332 326 315 311
181 214 172 188 217 223 168 267 151 162 181 181 170 149 128 106 99 23 13 22 13 13 9 5 9 11 8 4 15 18 14 10 14 13 9 12 6 7 7 8 8 6 1 357 351 341 338 326 318
Height
773 772 772 774 799 810 811 798 788 784 778 762 761 761 759 756 764 787 751 751 751 753 755 758 761 765 768 770 771 771 771 771 773 775 777 779 782 784 787 790 792 795 798 801 803 804 806 807 809
773 772 773 786 810 817 811 796 787 778 768 759 754 760 761 761 751 751 751 751 752 754 756 760 763 766 768 770 772 773 773 774 774 776 778 780 782 784 787 790 792 794 797 800 802 804 805 807 809
773 772 782 803 821 815 808 789 786 773 762 759 755 751 754 757 750 750 751 751 752 754 756 759 762 766 769 771 772 773 774 776 777 777 779 781 782 784 786 789 791 794 797 799 801 803 804 806 808
773 775 791 806 807 802 796 790 783 775 764 761 761 759 752 752 750 751 752 753 754 756 757 759 762 765 768 770 772 773 774 776 778 779 780 782 783 785 786 788 791 793 796 798 800 802 803 805 807
776 787 808 810 805 797 789 780 777 782 778 773 767 772 764 754 751 751 753 756 758 759 760 761 763 765 766 769 770 771 773 775 776 779 780 781 783 784 786 788 790 792 794 797 799 801 803 804 806
789 795 814 816 804 794 788 778 777 780 778 775 772 773 767 760 757 756 756 757 759 760 760 763 764 765 766 768 770 770 771 772 775 777 779 781 782 783 785 787 788 790 793 795 797 800 802 804 806
793 804 813 808 804 798 784 775 780 782 782 777 770 777 770 761 761 760 759 760 759 759 760 761 762 763 766 768 768 771 772 773 774 776 778 780 782 783 784 786 787 789 791 793 795 798 800 802 805
792 802 811 811 805 800 782 779 778 781 781 771 769 780 779 764 761 760 760 759 760 760 759 758 759 759 761 764 767 768 770 773 774 776 777 780 782 784 785 786 787 788 789 791 793 795 798 801 802
786 813 818 802 801 792 781 788 780 776 778 777 772 771 769 767 763 760 759 760 759 758 757 758 758 759 761 761 763 766 768 769 771 773 775 778 780 782 785 787 787 787 789 790 792 794 795 797 800
794 814 808 794 786 786 787 786 787 785 783 775 772 771 768 766 763 762 761 758 757 757 755 754 755 756 757 759 762 763 765 767 768 770 772 774 777 779 781 784 786 787 789 790 791 793 794 796 797
795 802 792 786 784 786 787 785 781 783 784 775 777 768 764 764 761 761 758 755 754 752 753 752 752 754 755 756 757 760 762 762 765 767 768 772 774 776 778 780 783 785 786 788 790 791 792 793 795
796 788 788 786 784 786 786 781 783 780 776 772 773 770 766 762 760 759 756 754 752 750 749 750 752 751 752 754 756 756 758 760 761 763 765 768 771 773 775 777 779 781 783 784 785 787 789 790 793
793 788 787 787 786 784 781 783 782 779 774 773 771 768 766 762 758 755 755 751 748 746 746 745 748 750 751 752 754 755 756 757 759 760 762 764 767 769 772 774 775 777 779 781 783 784 785 786 788
789 790 790 785 783 781 782 780 775 774 773 771 769 766 762 760 757 753 751 746 743 741 741 743 743 745 747 749 750 752 752 755 758 759 759 761 764 766 768 770 771 772 775 777 778 778 780 782 785
789 794 790 783 781 780 777 781 780 773 770 770 768 763 760 758 755 754 750 744 744 746 747 745 745 744 745 746 747 750 751 752 756 757 758 759 759 762 763 765 767 769 770 772 772 772 775 777 779
794 799 802 783 784 779 781 796 775 774 770 770 766 760 756 755 756 755 750 746 748 746 750 751 751 751 749 748 750 751 751 751 753 756 757 757 757 757 759 760 761 763 764 765 766 767 769 770 767
807 809 805 796 782 786 789 794 779 771 771 772 766 764 762 758 760 760 759 756 752 754 753 755 756 756 754 750 749 750 751 752 754 754 755 755 755 755 755 755 756 757 757 758 758 759 762 764 761
808 808 808 805 790 788 792 792 785 777 774 770 765 763 761 766 769 768 764 764 763 762 760 758 757 756 757 755 752 748 749 751 753 753 752 753 753 753 752 752 752 753 754 754 754 751 751 756 756
802 802 804 803 794 794 787 787 785 775 774 773 767 763 763 770 774 773 772 772 771 769 767 765 761 759 759 757 755 752 749 749 750 751 751 751 752 751 751 749 748 748 749 751 749 748 747 749 752
800 804 807 799 790 790 785 786 779 776 780 782 780 767 770 776 778 779 780 779 778 778 775 772 769 766 764 764 761 756 753 751 750 750 749 749 749 749 748 747 745 744 744 746 745 743 743 744 746
799 803 801 801 793 791 790 784 780 779 779 779 784 784 782 785 785 785 786 788 787 784 782 780 777 772 773 766 763 754 754 753 750 746 745 747 747 747 745 743 742 741 739 740 741 741 742 740 741
799 791 795 796 800 810 793 800 782 787 789 782 791 791 793 794 793 793 793 794 793 793 789 785 784 768 785 773 776 765 763 755 751 749 746 745 745 745 743 741 741 740 738 736 736 737 739 739 737
790 785 790 796 804 808 802 812 787 792 794 789 796 799 800 801 801 801 801 801 801 798 792 789 785 780 783 777 781 770 770 754 754 750 749 744 743 743 742 740 738 736 734 733 732 731 733 733 734
784 789 794 807 814 810 793 797 792 795 801 802 807 807 806 805 805 805 804 803 803 803 795 789 788 788 777 776 780 776 770 758 756 753 747 744 743 743 741 738 736 734 731 729 729 727 727 727 727
783 789 806 813 811 799 788 799 792 801 803 803 806 807 806 804 803 804 805 803 800 799 798 789 788 785 786 782 783 779 776 763 763 755 748 746 745 741 738 737 735 730 728 724 723 721 720 719 719
792 786 787 792 806 797 791 800 780 799 804 807 808 809 808 809 808 807 806 801 800 798 798 791 789 784 786 781 785 786 775 768 762 755 752 751 748 742 738 737 734 728 724 722 718 715 713 711 710
787 784 782 793 800 800 792 792 797 796 802 804 806 807 806 808 809 810 811 807 806 800 798 795 789 790 790 792 790 784 776 769 760 755 753 751 747 743 741 739 733 726 722 720 715 711 708 705 702
774 778 795 799 787 784 782 782 786 790 795 801 802 803 807 810 812 811 812 808 807 805 803 797 793 792 795 790 786 782 775 767 762 758 754 753 748 744 740 735 730 726 719 717 711 706 701 698 693
779 780 779 783 789 787 781 782 780 776 785 794 797 798 805 810 814 814 812 810 807 807 802 798 795 793 793 791 787 782 774 770 767 762 759 754 748 745 741 734 728 723 719 712 709 704 697 692 686
759 764 769 778 788 789 805 785 769 773 781 788 794 799 805 809 814 814 812 810 807 806 802 802 798 794 793 792 786 780 777 773 768 764 761 756 753 747 740 734 728 724 719 713 707 702 695 690 683